When you browse on this site, cookies collect data to enhance your experience and personalize the content and advertising you see.
Visit our Privacy Policy to learn more. By continuing to use the site, you agree to this use of cookies and data.

Stündliche Wetter Bolshie Klyuchi

Heute, 29 September, Dienstag

Zeit Temperatur Niederschläge Wind Luftdruck Luftfeuchtigkeit
00:00 +10°C° 0 mm 1 m/S 765 mmHg 63%
01:00 +10°C° 0 mm 1 m/S 765 mmHg 63%
02:00 +10°C° 0 mm 1 m/S 765 mmHg 63%
03:00 +10°C° 0 mm 1 m/S 765 mmHg 63%
04:00 +10°C° 0 mm 1 m/S 765 mmHg 63%
05:00 +9°C° 0 mm 1 m/S 765 mmHg 63%
06:00 +9°C° 0 mm 1 m/S 765 mmHg 63%
07:00 +11°C° 0 mm 1 m/S 765 mmHg 60%
08:00 +13°C° 0 mm 1 m/S 765 mmHg 57%
09:00 +14°C° 0 mm 1 m/S 765 mmHg 53%
10:00 +15°C° 0 mm 2 m/S 765 mmHg 51%
11:00 +16°C° 0 mm 2 m/S 765 mmHg 49%
12:00 +17°C° 0 mm 2 m/S 765 mmHg 47%
13:00 +18°C° 0 mm 2 m/S 765 mmHg 49%
14:00 +19°C° 0 mm 1 m/S 765 mmHg 51%
15:00 +19°C° 0 mm 1 m/S 765 mmHg 52%
16:00 +16°C° 0 mm 1 m/S 764 mmHg 57%
17:00 +14°C° 0 mm 1 m/S 764 mmHg 61%
18:00 +13°C° 0 mm 1 m/S 764 mmHg 65%
19:00 +12°C° 0 mm 1 m/S 764 mmHg 66%
20:00 +12°C° 0 mm 1 m/S 764 mmHg 67%
21:00 +12°C° 0 mm 1 m/S 764 mmHg 68%
22:00 +11°C° 0 mm 1 m/S 764 mmHg 68%
23:00 +11°C° 0 mm 1 m/S 763 mmHg 68%

Morgen, 30 September, Mittwoch

Zeit Temperatur Niederschläge Wind Luftdruck Luftfeuchtigkeit
00:00 +11°C° 0 mm 1 m/S 763 mmHg 69%
01:00 +11°C° 0 mm 1 m/S 763 mmHg 69%
02:00 +10°C° 0 mm 1 m/S 764 mmHg 69%
03:00 +10°C° 0 mm 1 m/S 764 mmHg 70%
04:00 +10°C° 0 mm 1 m/S 764 mmHg 73%
05:00 +9°C° 0 mm 1 m/S 763 mmHg 76%
06:00 +9°C° 0 mm 1 m/S 763 mmHg 78%
07:00 +10°C° 0 mm 2 m/S 763 mmHg 75%
08:00 +12°C° 0 mm 2 m/S 763 mmHg 71%
09:00 +14°C° 0 mm 2 m/S 764 mmHg 68%
10:00 +15°C° 0 mm 2 m/S 763 mmHg 65%
11:00 +16°C° 0 mm 3 m/S 763 mmHg 62%
12:00 +18°C° 0 mm 3 m/S 763 mmHg 59%
13:00 +18°C° 0 mm 3 m/S 763 mmHg 59%
14:00 +18°C° 0 mm 3 m/S 763 mmHg 59%
15:00 +18°C° 0 mm 3 m/S 763 mmHg 59%
16:00 +16°C° 0 mm 3 m/S 763 mmHg 65%
17:00 +15°C° 0 mm 2 m/S 762 mmHg 71%
18:00 +13°C° 0 mm 2 m/S 762 mmHg 78%
19:00 +13°C° 0 mm 2 m/S 763 mmHg 80%
20:00 +12°C° 0 mm 2 m/S 763 mmHg 82%
21:00 +12°C° 0 mm 2 m/S 763 mmHg 84%
22:00 +10°C° 0 mm 2 m/S 763 mmHg 85%
23:00 +10°C° 0 mm 2 m/S 763 mmHg 86%

übermorgen, 1 Oktober, Donnerstag

Zeit Temperatur Niederschläge Wind Luftdruck Luftfeuchtigkeit
00:00 +11°C° 0 mm 1 m/S 763 mmHg 87%
01:00 +10°C° 0 mm 1 m/S 763 mmHg 87%
02:00 +10°C° 0 mm 1 m/S 763 mmHg 87%
03:00 +10°C° 0 mm 1 m/S 763 mmHg 87%
04:00 +10°C° 0 mm 1 m/S 763 mmHg 87%
05:00 +10°C° 0 mm 1 m/S 763 mmHg 87%
06:00 +9°C° 0 mm 1 m/S 763 mmHg 87%
07:00 +11°C° 0 mm 1 m/S 763 mmHg 81%
08:00 +12°C° 0 mm 2 m/S 763 mmHg 75%
09:00 +14°C° 0 mm 2 m/S 763 mmHg 69%
10:00 +15°C° 0 mm 2 m/S 763 mmHg 64%
11:00 +16°C° 0 mm 2 m/S 763 mmHg 59%
12:00 +17°C° 0 mm 2 m/S 763 mmHg 55%
13:00 +18°C° 0 mm 2 m/S 763 mmHg 55%
14:00 +19°C° 0 mm 1 m/S 763 mmHg 54%
15:00 +19°C° 0 mm 1 m/S 763 mmHg 54%
16:00 +16°C° 0 mm 1 m/S 763 mmHg 59%
17:00 +15°C° 0 mm 1 m/S 762 mmHg 63%
18:00 +13°C° 0 mm 1 m/S 762 mmHg 68%
19:00 +12°C° 0 mm 1 m/S 762 mmHg 69%
20:00 +12°C° 0 mm 1 m/S 763 mmHg 70%
21:00 +11°C° 0 mm 1 m/S 763 mmHg 71%
22:00 +10°C° 0 mm 0 m/S 763 mmHg 71%
23:00 +10°C° 0 mm 0 m/S 763 mmHg 72%

2 Oktober, Freitag

Zeit Temperatur Niederschläge Wind Luftdruck Luftfeuchtigkeit
00:00 +10°C° 0 mm 0 m/S 763 mmHg 72%
01:00 +9°C° 0 mm 0 m/S 763 mmHg 72%
02:00 +9°C° 0 mm 0 m/S 763 mmHg 73%
03:00 +9°C° 0 mm 0 m/S 763 mmHg 73%
04:00 +9°C° 0 mm 0 m/S 763 mmHg 75%
05:00 +8°C° 0 mm 0 m/S 763 mmHg 76%
06:00 +8°C° 0 mm 0 m/S 763 mmHg 78%
07:00 +10°C° 0 mm 0 m/S 763 mmHg 72%
08:00 +12°C° 0 mm 0 m/S 763 mmHg 66%
09:00 +13°C° 0 mm 0 m/S 763 mmHg 60%
10:00 +15°C° 0 mm 0 m/S 763 mmHg 56%
11:00 +16°C° 0 mm 0 m/S 763 mmHg 53%
12:00 +17°C° 0 mm 0 m/S 763 mmHg 49%
13:00 +17°C° 0 mm 0 m/S 762 mmHg 49%
14:00 +17°C° 0 mm 0 m/S 762 mmHg 49%
15:00 +17°C° 0 mm 0 m/S 762 mmHg 49%
16:00 +15°C° 0 mm 0 m/S 762 mmHg 55%
17:00 +14°C° 0 mm 0 m/S 762 mmHg 60%
18:00 +13°C° 0 mm 1 m/S 762 mmHg 66%
19:00 +11°C° 0 mm 0 m/S 762 mmHg 68%
20:00 +11°C° 0 mm 0 m/S 762 mmHg 70%
21:00 +10°C° 0 mm 0 m/S 762 mmHg 72%
22:00 +10°C° 0 mm 0 m/S 762 mmHg 73%
23:00 +10°C° 0 mm 0 m/S 762 mmHg 74%

3 Oktober, Samstag

Zeit Temperatur Niederschläge Wind Luftdruck Luftfeuchtigkeit
00:00 +10°C° 0 mm 0 m/S 762 mmHg 76%
01:00 +9°C° 0 mm 0 m/S 762 mmHg 77%
02:00 +9°C° 0 mm 0 m/S 762 mmHg 78%
03:00 +9°C° 0 mm 0 m/S 762 mmHg 79%
04:00 +9°C° 0 mm 0 m/S 762 mmHg 80%
05:00 +9°C° 0 mm 1 m/S 762 mmHg 82%
06:00 +9°C° 0 mm 1 m/S 762 mmHg 84%
07:00 +10°C° 0 mm 1 m/S 762 mmHg 79%
08:00 +12°C° 0 mm 1 m/S 761 mmHg 74%
09:00 +13°C° 0 mm 1 m/S 761 mmHg 69%
10:00 +14°C° 0 mm 1 m/S 761 mmHg 65%
11:00 +15°C° 0 mm 1 m/S 761 mmHg 61%
12:00 +18°C° 0 mm 1 m/S 761 mmHg 56%
13:00 +18°C° 0 mm 1 m/S 761 mmHg 57%
14:00 +18°C° 0 mm 1 m/S 761 mmHg 57%
15:00 +17°C° 0 mm 2 m/S 761 mmHg 58%
16:00 +15°C° 0 mm 1 m/S 761 mmHg 65%
17:00 +14°C° 0 mm 1 m/S 761 mmHg 72%
18:00 +12°C° 0 mm 1 m/S 761 mmHg 78%
19:00 +11°C° 0 mm 1 m/S 761 mmHg 81%
20:00 +11°C° 0 mm 1 m/S 761 mmHg 85%
21:00 +10°C° 0 mm 1 m/S 761 mmHg 88%
22:00 +10°C° 0 mm 1 m/S 761 mmHg 89%
23:00 +10°C° 0 mm 1 m/S 761 mmHg 90%

4 Oktober, Sonntag

Zeit Temperatur Niederschläge Wind Luftdruck Luftfeuchtigkeit
00:00 +9°C° 0 mm 1 m/S 761 mmHg 91%
01:00 +9°C° 0 mm 1 m/S 761 mmHg 91%
02:00 +9°C° 0 mm 1 m/S 762 mmHg 91%
03:00 +8°C° 0 mm 1 m/S 762 mmHg 90%
04:00 +8°C° 0 mm 1 m/S 762 mmHg 91%
05:00 +8°C° 0 mm 1 m/S 762 mmHg 91%
06:00 +7°C° 0 mm 2 m/S 762 mmHg 92%
07:00 +8°C° 0 mm 2 m/S 762 mmHg 89%
08:00 +9°C° 0 mm 2 m/S 762 mmHg 85%
09:00 +10°C° 0 mm 3 m/S 762 mmHg 82%
10:00 +11°C° 0 mm 3 m/S 762 mmHg 78%
11:00 +11°C° 0 mm 3 m/S 762 mmHg 74%
12:00 +12°C° 0 mm 3 m/S 762 mmHg 70%
13:00 +12°C° 0 mm 4 m/S 762 mmHg 68%
14:00 +12°C° 0 mm 4 m/S 762 mmHg 67%
15:00 +12°C° 0 mm 4 m/S 762 mmHg 66%
16:00 +11°C° 0 mm 3 m/S 762 mmHg 69%
17:00 +9°C° 0 mm 3 m/S 762 mmHg 73%
18:00 +8°C° 0 mm 2 m/S 762 mmHg 76%
19:00 +7°C° 0 mm 3 m/S 762 mmHg 77%
20:00 +7°C° 0 mm 3 m/S 762 mmHg 77%
21:00 +5°C° 0 mm 3 m/S 763 mmHg 77%
22:00 +4°C° 0 mm 3 m/S 763 mmHg 77%
23:00 +4°C° 0 mm 3 m/S 763 mmHg 77%
Mehr zeigen